Погода Березино

Погода Березино : погода сейчас, прогноз погоды и архив. Всё, что Вы хотите узнать о погоде Березино!

Хотите узнать прогноз погоды Березино? Тогда Вам сюда: Погода Березино

Поиск расширенной информации на нашем сайте:

Полезная информация:

Другие новости

Новости СМИ2

Главная страница сайта

Новости сайта

03.07.2017

Напоминаем, что на нашем специализированном сайте Метеоцентр.Азия вы можете получить высокодетализированные автоматические прогнозы погоды по пунктам России, СНГ и мира в авиационном формате (включающие направление и скорость ветра, видимость, явления погоды, количество и форму облачности, нижнюю и верхнюю границу облачности).

Рекомендуем:

Погода Березино - сегодня

Время (UTC), дата Ветер
(°,м/с) 
Видим.   Явления Облачность Т
(°С)
Тd
(°С)
f(%) Тe
(°С)
Pmin
(гПа)
dP
(гПа)
Po
(мм)
O2
(г/м3)
Тmin Tmax R s Состояние
почвы
03 22.03.19 260 (З) 35000 м  в посл. час ливневой дождь  10/10 300 м кучево-дожд. 
[Cb calv]
+7.6 +6.9 95 +7  1017.5  -1.8  749  292           
06 22.03.19 290 (З) 4{11}  12000 м  слаб. ливневой дождь  10/10 750 м кучево-дожд. 
[Cb calv]
+7.9 +5.9 87 +7  1018.5  750  293  +5.5    0.7     
09 22.03.19 320 (СЗ) 5-13{17}  35000 м  в посл. час ливневой дождь  5/5 600 м кучево-дожд. 
[Cb calv]
+8.1 +2.8 69 +7  1019.8  1.3  751  293           
12 22.03.19 320 (СЗ) 7-13{18}  35000 м  {ливн. осадки}  ясно 
+8.2 -6.6 34 +6  1021.5  1.7  752  295           
15 22.03.19 340 (С) 7-13{16}  35000 м    ясно 
+7.9 -8.2 31 +6  1022.4  0.9  753  296           
18 22.03.19 310 (СЗ) 4{14}  35000 м    ясно 
+5.4 -7.1 40 +4  1024.1  1.5  754  299    +9  0.1     
21 22.03.19 320 (СЗ) 4{11}  35000 м    ясно 
+3.2 -6.2 50 +1  1025  0.7  754  301           
00 23.03.19 340 (С) 35000 м    ясно 
+1.5 -6.3 56 +1  1026  0.8  755  303           
03 23.03.19 320 (СЗ) 35000 м    1/0 верхняя 
[Ci ing]
+0 -6.4 62 -2  1026.9  0.8  755  305           
06 23.03.19 350 (С) 35000 м    1/0 верхняя 
[Ci sp]
+1.2 -5.8 60 -1  1027.6  0.8  756  304  -0.7         
09 23.03.19 010 (С) 35000 м    4/1 1000 м средняя, верхняя 
[Cu hum|Ac lent|Ci sp]
+5.9 -3.7 50 +5  1027.2  -0.1  756  299           
12 23.03.19 330 (СЗ) 35000 м    6/0 средняя, верхняя 
[Ac cast|Ci fib]
+8.2 -3 45 +8  1025.5  -1.5  755  296           
15 23.03.19 200 (Ю) 26000 м    4/0 средняя, верхняя 
[Ac lent|Cc]
+9.6 -2.3 43 +11  1023.5  -1.8  754  294           
18 23.03.19 220 (ЮЗ) 19000 м    3/0 верхняя 
[Ci sp]
+3 -1.5 72 +4  1022.7  -1.3  753  300    +10.1       
21 23.03.19 210 (ЮЗ) 17000 м    9/0 верхняя 
[Ci sp]
+1.5 -3 72 +2  1021.2  -1.6  751  301           
00 24.03.19 190 (Ю) 35000 м    10/0 средняя 
[Ac lent]
+4.2 -3.9 56 +4  1017.6  -3.3  749  298           
03 24.03.19 230 (ЮЗ) 35000 м  в посл. час ливневой дождь  10/10 800 м кучево-дожд. 
[Cb calv]
+3.1 +1.2 87 +3  1015.5  -2.1  747  298           
06 24.03.19 310 (СЗ) 22000 м  {ливн. осадки}  3/0 верхняя 
[Cc]
+4.8 +2.6 86 +4  1015.7  0.3  748  296  +1       
09 24.03.19 320 (СЗ) 35000 м    5/5 1000 м 
[Cu med, cong]
+8.5 -0.7 52 +7  1015.8  0.3  748  292           
12 24.03.19 310 (СЗ) 4{11}  35000 м    8/6 1000 м верхняя 
[Cu hum|Ci fib]
+10.4 -5.2 33 +10  1014.7  -0.9  747  291           
15 24.03.19 310 (СЗ) 4{11}  35000 м    9/1 1000 м верхняя 
[Cu hum|Cs]
+9.3 -5.9 34 +8  1013.9  -0.9  746  291           
18 24.03.19 300 (СЗ) 35000 м    6/0 средняя 
[Ac trans]
+5.7 -5.3 45 +7  1014.7  0.6  747  295    +11.1       
21 24.03.19 тихо ()   35000 м    1/0 средняя 
[Ac trans]
+0 -3.7 76 1015.2  747  301           
00 25.03.19 220 (ЮЗ) 27000 м    3/0 средняя, верхняя 
[Ac lent|Ci fib]
-1.6 -2.5 94 -1  1014.2  -1.1  746  303           
03 25.03.19 тихо ()   18000 м    9/0 верхняя 
[Cs]
-2.8 -3.5 95 -3  1013.1  -1.1  745  304           
Время (UTC), дата Ветер
(°,м/с) 
Видим.   Явления Облачность Т
(°С)
Тd
(°С)
f(%) Тe
(°С)
Pmin
(гПа)
dP
(гПа)
Po
(мм)
O2
(г/м3)
Тmin Tmax R s Состояние
почвы

Для получения пояснительной информации подведите курсор к названию столбца.

ПОГОДА Березино - архив

Всё, что Вы хотите узнать о погоде Березино - удобно и подробно!

Выберите нужную дату (начиная с 1 января 2018* года) и нажмите кнопку "Найти".
Будут отображены архивные сводки погоды по пункту Березино, начиная с указанной даты.


Отображать данные в формате CSV (для использования в таблицах Excel)


Внимание! Наш архив погоды предназначен исключительно для личного некоммерческого использования в познавательных целях. Если Вам необходимы официальные справки о состоянии погоды (для производственных, юридических, коммерческих и т.п. целей), обращайтесь в органы Росгидромета.

*Примечание: данная дата относится к архиву по метеостанциям СССР (Россия, СНГ, Балтия).
Архив по метеостанциям Зарубежной Европы и Азии (кроме Китая) хранится 10 дней, по другим регионам земного шара (Китай, Африка, Америка, Австралия, Океания) - 1 день.

Березино - район местоположения метеостанции


Название, широта, долгота, высота метеостанции:
Березино 53.8°ш. 29°д. 154 м над ур. моря [Беларусь]

Дополнительная информация

В oтличие oт бoльшинства пoгoдных сайтoв мы публикуем пoдрoбную метеoинфoрмацию в детальнoм прoфессиoнальнoм фoрмате.

Характеристики температуры и влажнoсти вoздуха измеряются на высoте 2 м в тени вдали oт зданий и деревьев.
Скoрoсть ветра измеряется на высoте 10 м (на урoвне рoста челoвека скoрoсть ветра ниже в 1.5-2 раза). Если метеoстанция нахoдится в гoрoде или в лесу, тo скoрoсть ветра занижена на 2-4 м/с пo сравнению с oткрытым местoм. Скoрoсть ветра над акватoриями крупных рек и oзёр, а также на вершинах хoлмoв на 2-5 м/с выше, чем в oбычных услoвиях.
Атмoсфернoе давление в разных тoчках местнoсти мoжет значительнo oтличаться oт давления на метеoстанции, в зависимoсти oт услoвий рельефа (при пoдъёме на 10 м давление пoнижается примернo на 1 мм рт.ст.).